TimeEDT,TemperatureF,Dew PointF,Humidity,Sea Level PressureIn,VisibilityMPH,Wind Direction,Wind SpeedMPH,Gust SpeedMPH,PrecipitationIn,Events,Conditions,WindDirDegrees,DateUTC
12:58 AM,52.0,47.1,83,30.07,10.0,East,5.8,-,N/A,,Clear,100,2013-09-24 04:58:00
1:58 AM,50.5,46.9,87,30.08,10.0,East,6.9,-,N/A,,Clear,90,2013-09-24 05:58:00
2:58 AM,49.8,46.6,89,30.08,10.0,East,5.8,-,N/A,,Clear,90,2013-09-24 06:58:00
3:58 AM,47.8,45.9,93,30.08,10.0,East,3.5,-,N/A,,Clear,90,2013-09-24 07:58:00
4:58 AM,46.9,45.7,95,30.08,10.0,East,5.8,-,N/A,,Clear,90,2013-09-24 08:58:00
5:58 AM,45.9,45.1,97,30.09,10.0,East,4.6,-,N/A,,Clear,90,2013-09-24 09:58:00
6:58 AM,45.5,45.0,98,30.10,10.0,East,4.6,-,N/A,,Clear,80,2013-09-24 10:58:00
7:18 AM,44.6,44.6,100,30.09,9.0,East,4.6,-,N/A,,Clear,80,2013-09-24 11:18:00
7:38 AM,44.6,44.6,100,30.09,10.0,East,4.6,-,N/A,,Clear,90,2013-09-24 11:38:00
7:58 AM,45.1,44.6,98,30.11,10.0,East,4.6,-,N/A,,Clear,100,2013-09-24 11:58:00
8:58 AM,48.7,46.6,92,30.11,10.0,East,8.1,-,N/A,,Clear,100,2013-09-24 12:58:00
9:58 AM,54.7,48.9,81,30.09,10.0,ESE,8.1,-,N/A,,Clear,120,2013-09-24 13:58:00
10:58 AM,60.1,50.7,71,30.08,10.0,ESE,9.2,-,N/A,,Clear,110,2013-09-24 14:58:00
11:58 AM,64.2,50.5,61,30.06,10.0,ESE,8.1,-,N/A,,Clear,110,2013-09-24 15:58:00
12:58 PM,66.0,49.5,55,30.04,10.0,ESE,8.1,17.3,N/A,,Clear,110,2013-09-24 16:58:00
1:58 PM,67.6,49.5,52,30.02,10.0,East,10.4,-,N/A,,Clear,80,2013-09-24 17:58:00
2:58 PM,69.4,49.6,49,30.00,10.0,ESE,8.1,-,N/A,,Clear,110,2013-09-24 18:58:00
3:58 PM,70.9,48.6,45,29.98,10.0,East,5.8,-,N/A,,Clear,80,2013-09-24 19:58:00
4:58 PM,71.1,48.7,45,29.96,10.0,ESE,8.1,-,N/A,,Clear,110,2013-09-24 20:58:00
5:58 PM,70.2,48.9,47,29.96,10.0,Variable,5.8,-,N/A,,Clear,0,2013-09-24 21:58:00
6:58 PM,67.1,50.2,55,29.95,10.0,ENE,8.1,-,N/A,,Clear,60,2013-09-24 22:58:00
7:58 PM,60.3,48.7,66,29.96,10.0,ENE,8.1,-,N/A,,Clear,60,2013-09-24 23:58:00
8:58 PM,58.6,48.6,69,29.96,10.0,ENE,6.9,-,N/A,,Clear,70,2013-09-25 00:58:00
9:58 PM,57.4,48.2,71,29.95,10.0,ENE,8.1,-,N/A,,Clear,70,2013-09-25 01:58:00
10:58 PM,56.8,48.0,72,29.96,10.0,ENE,6.9,-,N/A,,Mostly Cloudy,70,2013-09-25 02:58:00
11:58 PM,57.4,48.7,73,29.95,10.0,East,4.6,-,N/A,,Overcast,100,2013-09-25 03:58:00